Location: *
(51.5000°N, 0.1100°W)
Time: 02:02:20
(UTC+00:00)

MSX - Pass Details

Date: 08 August 2024
Orbit: 895 x 904 km, 99.0° (Epoch: 09 September)

Event Time Altitude Azimuth Distance (km) Brightness Sun altitude
Rises 03:38:22 0° 9° (N) 3,544 7.8 -8.3°
Reaches altitude 10° 03:41:12 10° 356° (N) 2,599 6.8 -7.9°
Maximum altitude 03:45:42 24° 305° (NW) 1,786 5.3 -7.4°
Drops below altitude 10° 03:50:11 10° 254° (WSW) 2,588 5.6 -6.8°
Enters shadow 03:51:02 - 249° (WSW) 2,856 5.8 -6.7°
